111  
ASUS46 KPQR 300810  
RWROR  
 
OREGON REGIONAL WEATHER ROUNDUP  
NATIONAL WEATHER SERVICE PORTLAND OR  
100 AM PDT SUN APR 30 2017  
 
NOTE: "FAIR" INDICATES FEW OR NO CLOUDS BELOW 12,000 FEET WITH  
NO SIGNIFICANT WEATHER AND/OR S TO VISIBILITY
.  
 
ORZ001>013-300900-  
NORTHWEST OREGON  
 
 
CITY SKY/WX TMP DP RH WIND PRES REMARKS
 
ASTORIA CLOUDY 49 46 90 NW9 30.18R  
NEWPORT DRIZZLE 50 48 93 S17 30.26S  
PORTLAND LGT RAIN 50 46 86 S6 30.20R  
VANCOUVER WA LGT RAIN 51 48 89 S3 30.19R  
SCAPPOOSE CLOUDY 50 49 96 S3 30.18S  
HILLSBORO LGT RAIN 50 48 93 S8 30.18S  
AURORA LGT RAIN 51 46 83 SW8 30.21R  
MCMINNVILLE LGT RAIN 51 49 92 S6 30.21S FOG  
SALEM CLOUDY 51 45 79 S9 30.20R  
CORVALLIS CLOUDY 50 45 81 S6 30.22R  
EUGENE CLOUDY 50 45 83 S9 30.25S  

 
 
ORZ021-028-300900-  
SOUTHWEST OREGON  
 
 
CITY SKY/WX TMP DP RH WIND PRES REMARKS
 
NORTH BEND CLOUDY 52 46 82 SE6 30.29R  
BROOKINGS PTCLDY 48 45 89 CALM 30.31R  
ROSEBURG CLOUDY 56 38 50 CALM 30.26S  
SEXTON SUMMIT CLOUDY 43 34 70 N6 30.26S  
MEDFORD CLEAR 54 41 61 SW5 30.25S  

 
 
ORZ014>016-041-300900-  
COLUMBIA GORGE  
 
 
CITY SKY/WX TMP DP RH WIND PRES REMARKS
 
TROUTDALE LGT RAIN 51 49 92 CALM 30.20R FOG  
HOOD RIVER LGT RAIN 50 45 81 W6 30.13F  
THE DALLES PTCLDY 53 45 74 NW12 30.11F  

 
 
ORZ029>031-041-044-049-050-061>064-502-503-505>511-300900-  
EASTERN OREGON  
 
 
CITY SKY/WX TMP DP RH WIND PRES REMARKS
 
REDMOND CLOUDY 49 32 52 SE3 30.17S  
BEND CLOUDY 50 30 46 CALM 30.17S  
PRINEVILLE CLOUDY 48 36 61 N5 30.17S  
KLAMATH FALLS CLEAR 44 33 65 W8 30.23R  
LAKEVIEW PTCLDY 37 30 75 NW7 30.22S WCI 32  
HERMISTON CLOUDY 55 39 54 S8 30.09F  
PENDLETON CLOUDY 52 39 61 S7 30.10F  
JOHN DAY CLOUDY 49 36 61 CALM 30.17S  
MEACHAM LGT RAIN 44 35 70 CALM 30.12F  
LA GRANDE CLOUDY 52 36 54 S9 30.12F  
BAKER CITY CLOUDY 44 37 76 E3 30.14F  
BURNS CLOUDY 44 32 62 W9 30.16R  
ROME N/A 47 27 45 S5 30.13R  
ONTARIO MOCLDY 46 37 71 CALM 30.14F  

 
 
 
CLICK HERE TO GO TO PREVIOUS BULLETINS.

The Nexlab OR Page Main Text Page